Location: Colle Santa Colomba
(42.0333°N, 12.5667°E)
Time: 02:29:36
(UTC+00:00)

Cosmos 220 Rocket - Pass Details

Date: 25 October 2021
Orbit: 575 x 615 km, 74.0° (Epoch: 05 December)

Event Time Altitude Azimuth Distance (km) Brightness Sun altitude
Rises 17:02:01 0° 182° (S) 2,867 7.6 -9.7°
Reaches altitude 10° 17:04:19 10° 176° (S) 1,965 6.7 -10.2°
Maximum altitude 17:08:30 44° 104° (ESE) 846 4.3 -10.9°
Drops below altitude 10° 17:12:41 10° 33° (NNE) 1,964 6.3 -11.7°
Enters shadow 17:14:53 - 27° (NNE) 2,829 7.1 -12.1°
